Location: Il Ritiro
(43.4167°N, 13.1333°E)
Time: 00:31:37
(UTC+00:00)

OAO 3 Rocket - Pass Details

Date: 05 July 2020
Orbit: 629 x 683 km, 35.0° (Epoch: 11 August)

Event Time Altitude Azimuth Distance (km) Brightness Sun altitude
Rises 19:35:15 0° 255° (WSW) 2,993 7.1 -7.3°
Reaches altitude 10° 19:37:51 10° 245° (WSW) 2,089 6.1 -7.6°
Maximum altitude 19:42:05 30° 185° (S) 1,202 4.2 -8.2°
Enters shadow 19:46:10 11° 126° (SE) 2,044 5.0 -8.7°
